{"data":{"norad_id":60938,"epoch":"2026-05-25T02:29:00.257280Z","epoch_age_seconds":65970,"freshness":"FRESH","line1":"1 60938U 24155Q   26145.10347520  .00145428  00000+0  83226-3 0  9990","line2":"2 60938  53.1392  96.1538 0008948  38.3330 321.8325 15.77869085 98627","mean_motion":15.77869085,"eccentricity":0.0008948,"inclination_deg":53.1392,"raan_deg":96.1538,"arg_perigee_deg":38.333,"mean_anomaly_deg":321.8325,"bstar":0.00083226,"rev_number":9862,"period_min":91.262324212404,"perigee_km":330.47100182843,"apogee_km":342.48747905232,"semimajor_km":6714.6162404404,"source":"CELESTRAK","updated_at":"2026-05-25T13:38:19.320419Z"}}